Milwaukee, WI

3:43 PM CDT on October 20, 2017 (GMT -0500)
Gen Mitchell International

Weather History for KMKE - May, 2014

Change the Weather History Date:

Thursday, May 1, 2014

  Actual Average Record
Temperature  
Mean Temperature 45 °F 51 °F  
Max Temperature 50 °F 60 °F 88 °F (1992)
Min Temperature 40 °F 42 °F 24 °F (1963)
Degree Days  
Heating Degree Days 20 14  
Month to date heating degree days 20 14  
Since 1 July heating degree days 7410 6511  
Cooling Degree Days 0 0  
Month to date cooling degree days 0 0  
Year to date cooling degree days 0 5  
Moisture  
Dew Point 39 °F    
Average Humidity 79    
Maximum Humidity 86    
Minimum Humidity 71    
Precipitation  
Precipitation T in 0.10 in 1.90 in (1873)
Month to date precipitation T 0.10  
Year to date precipitation 8.12 9.34  
Snow  
Snow 0.00 in 0.00 in 1.90 in (1909)
Month to date snowfall 0.0 0.0  
Since 1 July snowfall 63.4 46.8  
Snow Depth 0.00 in    
Sea Level Pressure  
Sea Level Pressure 29.71 in    
Wind  
Wind Speed 11 mph (WSW)    
Max Wind Speed 18 mph    
Max Gust Speed 24 mph    
Visibility 10 miles    
Events Rain    
T = Trace of Precipitation, MM = Missing Value Source: NWS Daily Summary

Daily Weather History Graph

Daily Weather History Graph

Search for Another Location

Airport or City:

Trip Planner

Search our weather history database for the weather conditions in past years. The results will help you decide how hot, cold, wet, or windy it might be!

Date:

Astronomy

May. 01, 2014 Rise Set
Actual Time 5:45 AM CDT 7:52 PM CDT
Civil Twilight 5:14 AM CDT 8:23 PM CDT
Nautical Twilight 4:36 AM CDT 9:01 PM CDT
Astronomical Twilight 3:54 AM CDT 9:44 PM CDT
Moon 7:31 AM CDT (5/1) 10:27 PM CDT (5/1)
Length of Visible Light 15h 09m
Length of Day
14h 07m
Waxing Crescent, 7% of the Moon is Illuminated
May 1
Waxing Crescent
May 6
First Quarter
May 14
Full
May 21
Last Quarter
May 28
New

Hourly Weather History & Observations

Time (CDT) Temp. Windchill Dew Point Humidity Pressure Visibility Wind Dir Wind Speed Gust Speed Precip Events Conditions
12:52 AM 43.0 °F 38.8 °F 36.0 °F 76% 29.74 in 10.0 mi South 6.9 mph - N/A   Mostly Cloudy
1:52 AM 44.1 °F 40.8 °F 37.0 °F 76% 29.71 in 10.0 mi South 5.8 mph - N/A   Overcast
2:52 AM 42.1 °F 38.4 °F 37.0 °F 82% 29.69 in 10.0 mi South 5.8 mph - N/A   Scattered Clouds
3:52 AM 41.0 °F 34.7 °F 36.0 °F 82% 29.69 in 10.0 mi SSW 10.4 mph - N/A   Partly Cloudy
4:52 AM 39.9 °F 33.4 °F 36.0 °F 86% 29.68 in 10.0 mi SSW 10.4 mph - N/A   Mostly Cloudy
5:12 AM 39.9 °F 35.1 °F 36.0 °F 86% 29.66 in 10.0 mi SSW 6.9 mph - N/A   Mostly Cloudy
5:52 AM 41.0 °F 35.8 °F 36.0 °F 82% 29.67 in 10.0 mi SSW 8.1 mph - N/A   Mostly Cloudy
6:52 AM 41.0 °F 35.2 °F 37.0 °F 86% 29.67 in 10.0 mi South 9.2 mph - 0.00 in Rain Light Rain
7:52 AM 42.1 °F 34.9 °F 37.0 °F 82% 29.67 in 10.0 mi SW 13.8 mph - 0.00 in Rain Light Rain
8:52 AM 43.0 °F 37.2 °F 37.0 °F 80% 29.67 in 10.0 mi WSW 10.4 mph - 0.00 in Rain Light Rain
9:19 AM 43.0 °F 36.4 °F 37.0 °F 80% 29.66 in 10.0 mi WSW 12.7 mph - 0.00 in Rain Light Rain
9:52 AM 43.0 °F 38.8 °F 37.9 °F 82% 29.67 in 10.0 mi WSW 6.9 mph - 0.00 in Rain Light Rain
9:59 AM 44.1 °F 38.1 °F 37.9 °F 79% 29.66 in 10.0 mi WSW 11.5 mph - 0.00 in Rain Light Rain
10:22 AM 44.1 °F 38.1 °F 37.0 °F 76% 29.66 in 10.0 mi West 11.5 mph - 0.00 in   Overcast
10:52 AM 44.1 °F 39.0 °F 37.0 °F 76% 29.68 in 10.0 mi WSW 9.2 mph - 0.00 in   Overcast
11:52 AM 45.0 °F 39.3 °F 37.0 °F 74% 29.69 in 10.0 mi West 11.5 mph 19.6 mph 0.00 in Rain Light Rain
12:52 PM 46.4 °F 41.5 °F 37.4 °F 71% 29.68 in 10.0 mi West 10.4 mph - N/A   Overcast
1:41 PM 46.9 °F - 37.9 °F 71% 29.69 in 10.0 mi West 11.5 mph - N/A   Overcast
1:52 PM 46.9 °F - 37.9 °F 71% 29.70 in 10.0 mi West 8.1 mph - N/A   Overcast
2:15 PM 46.0 °F 40.2 °F 39.9 °F 79% 29.70 in 8.0 mi SW 12.7 mph - N/A   Overcast
2:52 PM 46.9 °F - 39.0 °F 74% 29.72 in 10.0 mi WSW 18.4 mph 24.2 mph N/A   Overcast
3:43 PM 48.0 °F - 39.9 °F 74% 29.71 in 10.0 mi WSW 13.8 mph - 0.00 in   Overcast
3:52 PM 48.0 °F - 39.9 °F 74% 29.72 in 10.0 mi WSW 12.7 mph - 0.00 in   Overcast
4:52 PM 48.0 °F - 39.0 °F 71% 29.73 in 10.0 mi WSW 13.8 mph 19.6 mph N/A   Overcast
5:52 PM 48.9 °F - 39.0 °F 69% 29.73 in 10.0 mi WSW 11.5 mph - N/A   Mostly Cloudy
6:06 PM 48.2 °F - 39.2 °F 71% 29.71 in 10.0 mi WSW 12.7 mph - N/A   Mostly Cloudy
6:52 PM 48.9 °F - 39.0 °F 69% 29.74 in 10.0 mi WSW 12.7 mph - N/A   Mostly Cloudy
7:52 PM 48.9 °F - 41.0 °F 74% 29.75 in 10.0 mi WSW 12.7 mph - 0.00 in Rain Light Rain
8:09 PM 48.0 °F - 42.1 °F 80% 29.74 in 10.0 mi WSW 11.5 mph - 0.00 in   Overcast
8:43 PM 48.0 °F - 43.0 °F 83% 29.75 in 10.0 mi West 11.5 mph 20.7 mph 0.00 in   Overcast
8:52 PM 48.0 °F - 43.0 °F 83% 29.76 in 10.0 mi West 10.4 mph - 0.00 in   Overcast
9:22 PM 46.9 °F - 44.1 °F 90% 29.76 in 7.0 mi West 10.4 mph - 0.00 in   Light Drizzle
9:38 PM 46.9 °F - 44.1 °F 90% 29.76 in 9.0 mi West 10.4 mph - 0.00 in   Light Drizzle
9:52 PM 46.9 °F - 44.1 °F 90% 29.77 in 10.0 mi West 9.2 mph - 0.00 in   Light Drizzle
10:15 PM 46.9 °F - 43.0 °F 86% 29.76 in 10.0 mi West 10.4 mph - 0.00 in   Light Drizzle
10:52 PM 46.9 °F - 43.0 °F 86% 29.78 in 10.0 mi West 9.2 mph - 0.00 in   Overcast
11:52 PM 46.9 °F - 43.0 °F 86% 29.78 in 10.0 mi West 9.2 mph - N/A   Overcast